Theta_e
346 348 349 348 347 348 348 349 351 354 357 358 358 360 359 359 358 357 356 354 351 353 352 348 350 352 349 348 350 348 349 348 347
347 350 352 351 350 350 352 354 356 357 358 360 361 362 358 358 357 357 356 353 354 354 350 349 349 348 349 347 352 350 349 349 346
352 356 357 355 355 357 357 356 357 357 357 358 358 359 358 355 355 355 355 355 352 352 351 351 349 350 349 347 339 349 344 349 343
353 354 354 355 356 355 354 355 355 356 357 358 359 359 357 355 355 354 354 353 351 350 350 347 342 341 345 344 347 347 342 348 346
352 353 354 354 354 353 354 357 356 356 355 352 346 347 346 343 342 343 344 340 343 343 344 346 346 344 343 339 340 339 338 338 344
353 353 352 352 353 355 355 353 353 350 342 343 347 347 344 341 337 336 335 336 337 337 338 339 339 340 341 340 337 339 339 338 336
353 353 353 354 355 355 354 352 349 349 350 349 345 346 346 346 342 339 344 343 340 339 339 340 341 340 340 340 337 337 336 335 333
353 353 354 356 357 354 353 351 351 351 350 349 349 347 347 346 345 344 345 344 340 337 338 338 338 336 334 336 336 335 336 335 333
351 352 352 352 353 353 354 352 352 351 352 350 348 347 346 345 345 344 344 342 340 336 340 338 336 334 338 338 337 338 339 338 338
349 349 349 349 350 351 351 351 351 351 350 349 348 347 344 343 343 343 341 339 336 336 334 333 333 335 334 335 338 337 336 336 336
349 349 349 349 350 351 351 350 348 348 346 344 343 345 344 341 339 339 335 333 333 331 328 325 321 319 318 317 315 315 312 309 307
349 349 349 349 349 347 347 348 347 347 346 344 342 340 337 334 333 332 331 329 327 323 318 313 315 316 315 311 311 310 312 313 312
348 349 349 349 349 349 349 347 347 346 344 341 339 336 334 332 330 328 324 320 317 313 311 318 312 315 311 311 315 318 317 313 312
348 349 349 349 348 347 346 345 345 344 341 339 335 331 329 328 324 318 318 317 312 310 309 311 313 313 313 313 315 314 312 312 311
349 349 347 347 346 344 341 341 341 339 337 334 330 326 324 321 316 314 317 312 310 311 314 315 314 314 314 313 312 311 311 311 311
349 347 345 343 340 337 335 334 335 334 332 327 322 322 322 321 319 318 318 316 316 316 315 314 313 313 313 311 310 310 310 311 311
345 344 341 339 337 334 331 328 327 327 323 320 320 321 320 318 317 316 315 317 316 316 316 315 314 313 311 311 310 310 311 311 311
343 340 338 336 334 332 328 324 321 319 318 316 318 318 317 317 317 316 315 315 315 315 314 314 313 311 311 311 311 310 310 310 309
339 337 335 333 330 328 324 322 320 318 316 315 316 317 316 316 315 314 314 314 315 314 313 312 312 312 311 310 310 309 309 309 308
336 334 331 329 327 325 322 321 320 319 318 319 318 317 317 316 316 315 313 312 312 312 312 312 312 311 311 310 309 309 308 308 308
Wind_Speed
3 22 26 25 23 19 18 14 16 15 16 16 15 17 18 18 15 14 15 17 16 17 16 14 14 14 13 14 13 10 9 6 3
6 7 20 9 14 10 16 10 8 9 10 9 11 13 16 16 15 14 14 14 15 15 16 14 13 16 12 16 13 13 10 7 7
8 11 14 16 14 11 11 6 4 4 5 8 11 14 11 14 15 15 16 14 14 16 14 13 14 18 15 17 21 19 14 9 9
12 12 14 14 13 11 10 11 10 9 11 11 10 12 13 11 13 14 15 18 19 17 13 12 14 20 18 15 17 6 7 6 5
17 16 16 15 14 13 12 10 8 6 6 8 3 2 3 3 2 2 3 4 9 12 12 10 9 17 16 26 23 16 9 9 7
16 17 16 15 14 12 11 10 8 6 7 8 6 3 2 3 5 6 6 6 5 7 9 15 19 18 14 13 21 22 15 12 11
16 16 15 15 15 14 12 11 11 11 8 8 8 8 6 6 5 6 8 9 9 6 6 6 5 7 11 11 9 11 12 13 10
15 16 16 14 13 13 12 13 12 8 6 6 8 4 1 2 6 6 5 4 5 5 4 4 4 4 4 8 11 16 16 15 17
17 16 16 15 14 14 13 12 10 8 7 6 7 6 1 5 6 5 4 2 0 1 2 4 5 6 5 5 8 10 12 12 14
18 17 16 15 13 12 12 11 10 7 10 11 11 7 6 5 3 3 2 2 4 5 5 6 7 8 10 10 11 15 20 21 23
19 18 17 16 14 13 14 12 10 10 9 8 8 7 7 5 2 0 3 6 8 9 9 11 12 11 13 15 15 17 19 19 20
18 17 16 15 14 14 16 13 12 11 9 7 5 5 3 2 3 4 6 8 10 11 12 11 12 11 14 13 14 15 16 17 19
19 16 15 15 15 14 12 11 10 9 6 4 6 4 5 5 6 7 9 10 12 11 9 5 13 10 12 14 12 11 17 23 23
17 16 15 15 13 12 10 8 7 7 6 7 6 3 5 7 7 5 12 13 11 11 9 11 11 14 15 12 11 15 20 18 18
18 16 15 13 13 11 9 8 8 7 8 7 4 3 4 7 9 3 8 12 11 10 11 11 13 13 12 11 12 17 19 22 26
16 14 14 12 12 11 8 9 7 5 7 4 4 2 3 4 8 7 10 13 12 12 10 11 12 13 14 16 17 18 18 22 21
16 16 14 13 12 9 5 3 3 5 4 4 1 2 4 5 7 8 10 8 10 9 11 14 13 15 21 21 22 21 18 24 31
18 16 14 12 11 8 5 2 3 0 1 1 1 4 6 8 8 7 12 12 11 15 13 15 19 22 23 22 19 18 24 29 34
18 16 13 12 9 8 5 4 3 1 2 4 4 5 5 6 9 10 11 13 14 14 17 17 22 22 18 15 20 22 27 35 38
17 13 11 9 8 7 7 5 4 2 1 3 4 5 7 9 9 11 14 15 16 17 19 18 17 21 10 13 24 32 37 36 36
Wind_Direction
212 188 190 192 178 188 183 186 184 178 207 224 231 228 227 236 241 231 241 244 242 240 246 256 242 247 264 250 226 213 220 228 170
157 71 111 172 147 153 127 135 146 163 195 204 227 231 237 243 244 245 245 247 248 248 250 254 252 264 256 254 233 217 199 186 183
101 80 84 98 100 97 98 131 169 164 184 197 219 232 234 240 248 253 254 253 250 243 244 258 238 268 254 258 232 219 181 197 197
130 114 101 104 102 105 112 110 131 154 180 189 210 214 224 238 255 263 263 262 266 267 254 246 277 270 262 263 296 250 201 198 200
135 125 119 120 121 125 134 124 136 144 169 254 214 227 256 261 264 307 327 280 257 260 268 268 266 262 273 251 276 275 251 238 229
131 126 128 131 133 134 129 126 135 151 123 103 101 102 65 91 95 51 20 5 339 296 286 279 277 278 299 260 256 266 248 239 242
141 139 133 130 131 134 145 155 130 115 116 117 98 81 63 13 5 44 30 29 22 44 15 9 329 299 279 278 239 235 237 246 258
157 148 146 146 144 150 150 147 145 142 136 121 124 122 78 54 64 47 24 16 6 14 358 348 346 341 300 259 262 268 277 280 266
167 157 153 155 156 158 160 156 153 149 154 136 141 189 168 135 176 195 169 200 338 300 319 306 305 307 317 304 275 279 273 266 258
162 158 155 154 156 158 162 154 156 173 149 164 179 165 151 151 186 186 219 257 292 301 301 298 289 284 278 266 268 268 270 275 278
160 155 155 153 149 141 143 145 142 131 141 152 140 137 141 158 178 135 287 300 303 307 309 311 308 300 292 290 287 283 287 289 292
162 155 157 155 147 144 143 143 142 139 139 136 129 111 192 244 260 280 296 301 306 308 311 311 308 311 309 313 311 313 315 323 325
157 160 161 151 148 146 145 147 148 144 141 164 210 253 260 282 292 302 307 313 315 322 330 323 311 303 321 334 340 339 320 325 327
155 158 148 146 143 148 148 146 149 148 155 205 220 219 274 290 306 328 316 317 318 324 327 327 353 350 354 359 349 314 322 328 326
148 141 137 143 142 134 131 130 137 142 191 227 251 273 283 304 314 288 268 310 324 341 356 353 338 331 330 319 318 320 324 312 312
143 144 147 149 143 132 128 142 135 172 250 261 281 294 286 300 317 336 330 338 355 344 335 323 322 324 320 320 315 309 311 310 307
151 153 152 150 147 139 129 127 179 223 256 266 306 293 315 323 301 312 326 334 318 321 318 314 317 314 316 313 311 314 303 291 297
152 153 152 153 154 147 152 174 156 293 41 327 19 303 321 341 333 314 316 326 319 314 314 308 307 315 315 308 305 296 290 296 307
152 152 154 151 149 153 160 144 141 152 341 351 358 3 333 318 327 319 320 319 318 317 319 321 315 316 319 303 280 292 305 310 312
152 148 148 150 151 164 161 149 135 120 346 357 347 350 341 325 335 329 324 322 322 323 315 321 332 325 314 335 326 323 321 320 318